Lid_Strength_Index
10 15 16 14 13 12 13 14 14 13 11 12 12 12 11 10 10 10 10 10 8 8 7 6 5 5 4 3 4 2 2 2 1 2 2 2 3 2 2 2 0 0 1 2
11 14 11 10 10 11 12 13 14 12 10 12 13 13 11 10 10 9 8 8 9 7 6 5 4 4 4 3 3 2 2 1 2 2 2 2 3 3 2 1 0 0 1 2
13 10 7 9 10 11 11 12 13 12 11 11 12 13 12 9 9 7 7 7 6 8 6 6 5 4 4 4 3 2 2 2 2 2 3 3 3 3 3 3 2 0 -0 1
11 8 9 9 10 10 12 9 9 10 12 16 12 17 12 10 9 8 7 7 8 6 5 5 6 5 5 4 2 2 2 2 2 2 3 4 3 4 3 2 1 1 0 0
11 10 10 10 10 8 10 8 9 10 12 13 12 15 13 9 10 10 8 7 7 6 5 5 4 4 4 3 3 2 2 2 2 2 3 4 4 4 3 3 2 1 1 0
10 7 9 9 8 8 7 9 10 11 13 16 13 14 15 12 10 10 8 7 6 6 5 5 4 4 3 3 3 2 2 2 2 3 3 3 4 4 3 3 3 2 1 1
10 9 8 8 10 8 9 12 17 19 19 18 12 15 13 11 9 9 9 7 7 6 6 6 6 6 5 4 5 3 3 3 2 3 3 2 3 3 3 3 3 3 3 3
14 15 10 7 10 12 11 12 18 21 20 17 12 18 14 10 8 8 7 7 6 6 6 7 7 7 7 4 4 3 3 3 3 3 3 2 2 3 3 2 2 3 3 2
15 14 8 8 8 8 11 13 10 16 15 18 15 12 10 9 9 10 8 7 7 7 7 8 8 8 9 8 4 4 4 3 3 3 3 2 2 3 2 3 2 2 2 2
10 15 9 8 8 8 10 9 16 16 21 22 16 14 17 13 11 10 9 8 8 7 8 10 10 10 10 9 7 3 3 4 3 2 2 2 3 3 2 2 3 2 1 1
10 12 12 9 11 13 11 13 12 13 15 20 21 18 12 12 10 10 9 9 9 9 10 10 11 12 12 11 9 8 3 3 3 2 2 3 3 2 2 2 2 2 1 2
9 12 16 13 9 8 10 13 13 18 18 16 17 17 9 9 9 9 8 9 10 10 11 11 12 13 13 12 11 10 9 3 3 2 3 3 3 3 2 2 1 1 1 1
9 13 16 15 11 10 12 12 12 13 13 17 19 18 9 9 9 9 10 11 11 11 12 12 12 13 13 13 12 11 10 8 3 3 3 3 3 3 2 2 2 2 1 1
8 12 14 16 14 11 13 12 12 13 17 17 17 16 12 11 10 10 11 11 12 12 13 13 13 14 14 14 13 12 11 10 3 3 3 3 3 2 2 2 2 2 2 1
10 14 12 12 11 12 12 12 12 14 14 17 15 15 12 11 11 11 11 12 13 14 14 14 15 14 14 14 14 14 13 11 9 7 7 7 6 6 6 6 6 7 7 7
9 14 12 14 11 11 13 12 12 13 13 14 13 14 10 11 11 12 13 13 14 14 14 14 14 15 15 15 14 14 13 12 12 12 11 10 9 10 10 10 10 10 10 10
11 13 14 17 12 13 16 13 12 12 12 12 15 12 10 13 14 14 14 14 14 15 15 15 15 15 15 15 15 15 14 14 14 14 13 12 12 12 12 12 12 13 13 13
11 12 13 16 14 20 13 8 10 12 11 10 10 11 12 13 14 14 14 14 14 15 15 15 15 15 15 15 15 14 14 14 15 15 14 14 14 14 14 14 14 15 15 15
9 12 15 17 17 15 13 11 11 12 13 11 12 12 11 12 13 15 13 14 14 15 15 15 15 15 15 16 15 15 15 15 15 16 15 16 15 15 15 16 16 15 16 16
10 10 14 15 18 20 14 10 8 8 15 11 12 13 12 11 13 17 14 13 14 14 14 15 15 15 16 16 15 16 15 16 17 16 16 15 15 16 16 16 16 16 16 17
13 13 15 16 17 15 12 10 8 15 14 11 12 14 15 16 15 14 13 13 13 13 14 14 15 16 16 15 15 16 16 17 16 16 16 16 16 15 16 16 16 16 17 17
13 15 16 15 17 18 11 10 13 11 10 11 12 14 14 14 14 14 14 14 14 14 14 14 15 15 15 15 16 17 18 17 17 17 17 17 17 17 17 17 17 16 16 17
15 12 14 13 14 11 11 11 10 10 11 11 12 12 13 15 15 15 15 14 14 14 15 15 16 16 16 15 15 17 17 17 18 18 19 19 19 19 19 19 19 18 17 18
10 9 12 11 12 12 11 10 10 10 11 10 11 12 13 15 15 15 14 14 15 15 15 15 16 17 17 16 16 15 15 16 17 18 19 19 19 20 20 20 19 19 20 20
12 10 11 11 11 11 11 11 10 11 11 11 11 12 14 15 15 15 15 15 15 16 16 16 17 17 17 16 16 15 14 14 15 16 17 19 19 20 20 19 19 19 19 19
11 12 13 15 11 11 12 10 10 11 12 12 13 14 13 14 15 15 16 15 16 16 16 16 16 17 17 17 16 15 15 15 15 16 16 17 18 19 20 21 21 18 18 18